Date String (YYYY-MM-DD hh:mm:ss) UTC,Instrument flags,Ambient pressure (hPa),Sample flow (lpm),Bypass flow (lpm),Sample temperature (°C),Ambient temperature (°C),ASC tube jacket temperature (°C),LED temperature (°C),Box temperature (°C),Sample RH (%),Span deviation,Mass concentration (μg/m³),Mass concentration (μg/m³),Mass concentration (μg/m³)
DateTimeUTC,F1_M11,P_M11,Q1_M11,Q2_M11,T1_M11,T2_M11,T3_M11,T4_M11,T5_M11,U1_M11,ZSPAN_M11,X0_M11,X2_M11,X1_M11
2021-08-26 13:00:00,,0830.0,5.00,0.00,29.5,28.9,00.0,38.7,31.3,30.5,0000.9,0022.86,0010.39,0008.74
2021-08-26 13:01:00,,0830.1,4.99,0.00,29.5,28.8,00.0,38.7,31.3,30.4,0000.8,0023.05,0010.44,0008.77
2021-08-26 13:02:00,,0830.1,5.00,0.00,29.5,28.8,00.0,38.7,31.3,30.3,0000.8,0022.61,0010.46,0008.78
2021-08-26 13:03:00,,0830.1,5.00,0.00,29.5,28.9,00.0,38.7,31.3,30.3,0000.8,0022.20,0010.38,0008.77
2021-08-26 13:04:00,,0830.1,5.01,0.00,29.5,28.9,00.0,38.7,31.3,30.4,0000.8,0022.76,0010.34,0008.76
2021-08-26 13:05:00,,0830.1,5.01,0.00,29.5,28.9,00.0,38.7,31.3,30.6,0000.7,0022.97,0010.36,0008.78
2021-08-26 13:06:00,,0830.1,5.01,0.00,29.5,28.9,00.0,38.7,31.3,31.0,0001.0,0022.76,0010.40,0008.78
2021-08-26 13:07:00,,0830.1,5.01,0.00,29.5,28.9,00.0,38.7,31.3,31.3,0001.3,0021.82,0010.39,0008.82
2021-08-26 13:08:00,,0830.1,5.00,0.00,29.5,28.9,00.0,38.7,31.3,31.5,0001.2,0021.99,0010.42,0008.83
2021-08-26 13:09:00,,0830.1,4.99,0.00,29.5,28.9,00.0,38.7,31.3,31.9,0001.1,0021.56,0010.44,0008.83
2021-08-26 13:10:00,,0830.1,5.00,0.00,29.5,28.9,00.0,38.7,31.3,32.3,0000.9,0021.52,0010.48,0008.85
2021-08-26 13:11:00,,0830.2,5.01,0.00,29.5,28.9,00.0,38.7,31.3,33.0,0001.1,0022.54,0010.56,0008.89
2021-08-26 13:12:00,,0830.1,5.00,0.00,29.5,28.9,00.0,38.7,31.3,34.0,0001.3,0024.12,0010.60,0008.94
2021-08-26 13:13:00,,0830.1,4.99,0.00,29.5,28.9,00.0,38.7,31.3,34.0,0001.1,0024.39,0010.63,0008.98
2021-08-26 13:14:00,,0830.2,5.01,0.00,29.6,29.0,00.0,38.7,31.3,33.9,0001.1,0025.56,0010.71,0009.04
2021-08-26 13:15:00,,0830.1,5.02,0.00,29.6,29.0,00.0,38.7,31.3,33.8,0001.0,0025.40,0010.82,0009.08
2021-08-26 13:16:00,,0830.1,4.99,0.00,29.5,28.9,00.0,38.7,31.3,33.6,0001.0,0025.94,0010.83,0009.11
2021-08-26 13:17:00,,0830.1,5.00,0.00,29.5,28.9,00.0,38.7,31.3,34.2,0000.8,0027.09,0010.88,0009.15
2021-08-26 13:18:00,,0830.2,5.01,0.00,29.5,28.8,00.0,38.7,31.3,34.1,0000.6,0027.90,0010.94,0009.17
2021-08-26 13:19:00,,0830.2,5.00,0.00,29.5,28.8,00.0,38.7,31.3,33.7,0000.8,0028.13,0011.02,0009.20
2021-08-26 13:20:00,,0830.2,4.99,0.00,29.5,28.9,00.0,38.7,31.3,34.2,0000.7,0027.96,0011.06,0009.22
2021-08-26 13:21:00,,0830.2,5.01,0.00,29.5,28.9,00.0,38.7,31.3,34.6,0000.5,0027.32,0011.08,0009.24
2021-08-26 13:22:00,,0830.2,5.00,0.00,29.6,28.9,00.0,38.7,31.3,34.6,0000.3,0026.13,0011.09,0009.27
2021-08-26 13:23:00,,0830.2,4.99,0.00,29.6,28.9,00.0,38.7,31.4,34.5,0000.0,0024.05,0011.13,0009.29
2021-08-26 13:24:00,,0830.3,5.00,0.00,29.6,28.9,00.0,38.7,31.4,34.6,0000.2,0024.15,0011.17,0009.29
2021-08-26 13:25:00,,0830.3,5.00,0.00,29.6,29.0,00.0,38.7,31.4,34.6,0000.1,0023.78,0011.19,0009.31
2021-08-26 13:26:00,,0830.3,5.00,0.00,29.6,29.0,00.0,38.7,31.4,34.6,0000.3,0023.97,0011.21,0009.32
2021-08-26 13:27:00,,0830.4,5.00,0.00,29.6,29.0,00.0,38.7,31.4,34.6,0000.3,0023.37,0011.27,0009.34
2021-08-26 13:28:00,,0830.4,5.01,0.00,29.6,29.0,00.0,38.7,31.4,34.8,0000.4,0023.36,0011.33,0009.38
2021-08-26 13:29:00,,0830.5,5.01,0.00,29.6,29.0,00.0,38.7,31.4,34.6,0000.3,0022.77,0011.35,0009.40
2021-08-26 13:30:00,,0830.4,4.99,0.00,29.7,29.0,00.0,38.7,31.5,34.6,0000.1,0022.08,0011.29,0009.40
2021-08-26 13:31:00,,0830.4,5.00,0.00,29.7,29.1,00.0,38.8,31.5,35.0,0000.2,0022.92,0011.32,0009.44
2021-08-26 13:32:00,,0830.4,5.02,0.00,29.9,29.1,00.0,38.8,31.6,35.0,0000.3,0022.97,0011.36,0009.46
2021-08-26 13:33:00,,0830.4,4.99,0.00,30.1,29.1,00.0,38.8,31.8,34.1,0000.5,0023.06,0011.36,0009.43
2021-08-26 13:34:00,,0830.4,5.00,0.00,30.3,29.1,00.0,38.8,31.8,34.0,0000.7,0023.71,0011.36,0009.38
2021-08-26 13:35:00,,0830.5,5.01,0.00,30.4,29.2,00.0,38.9,31.8,34.0,0000.7,0024.44,0011.36,0009.36
2021-08-26 13:36:00,,0830.5,5.00,0.00,30.4,29.2,00.0,38.9,31.8,33.8,0000.8,0024.18,0011.36,0009.34
2021-08-26 13:37:00,,0830.4,4.99,0.00,30.4,29.2,00.0,39.0,31.8,33.6,0000.5,0023.52,0011.33,0009.30
2021-08-26 13:38:00,,0830.4,4.99,0.00,30.5,29.3,00.0,39.0,31.8,33.8,0000.6,0023.37,0011.28,0009.27
2021-08-26 13:39:00,,0830.4,5.00,0.00,30.5,29.3,00.0,39.1,31.9,33.8,0000.5,0022.66,0011.19,0009.22
2021-08-26 13:40:00,,0830.4,5.01,0.00,30.5,29.3,00.0,39.1,31.8,34.1,0000.4,0022.54,0011.19,0009.18
2021-08-26 13:41:00,,0830.4,4.99,0.00,30.5,29.4,00.0,39.2,31.8,34.0,0000.3,0022.86,0011.21,0009.16
2021-08-26 13:42:00,,0830.5,5.00,0.00,30.5,29.4,00.0,39.2,31.9,34.3,0000.2,0022.68,0011.16,0009.11
2021-08-26 13:43:00,,0830.5,5.00,0.00,30.5,29.4,00.0,39.2,31.9,34.2,0000.2,0022.73,0011.12,0009.07
2021-08-26 13:44:00,,0830.5,5.00,0.00,30.6,29.4,00.0,39.3,31.9,34.2,0000.1,0023.29,0011.10,0009.06
2021-08-26 13:45:00,,0830.5,5.00,0.00,30.6,29.5,00.0,39.3,32.0,33.8,0000.2,0023.55,0011.05,0009.07
2021-08-26 13:46:00,,0830.5,5.00,0.00,30.6,29.5,00.0,39.3,32.0,33.9,0000.4,0023.22,0011.01,0009.08
2021-08-26 13:47:00,,0830.4,5.00,0.00,30.6,29.5,00.0,39.4,32.0,34.0,0000.3,0023.40,0010.99,0009.08
2021-08-26 13:48:00,,0830.4,5.01,0.00,30.6,29.5,00.0,39.4,32.0,34.2,0000.3,0023.70,0010.99,0009.10
2021-08-26 13:49:00,,0830.4,5.01,0.00,30.6,29.6,00.0,39.4,32.1,33.8,0000.2,0024.21,0011.03,0009.11
2021-08-26 13:50:00,,0830.4,5.00,0.00,30.6,29.6,00.0,39.4,32.1,33.7,0000.3,0024.65,0011.02,0009.12
2021-08-26 13:51:00,,0830.4,5.00,0.00,30.6,29.6,00.0,39.5,32.1,33.5,0000.6,0024.69,0010.99,0009.12
2021-08-26 13:52:00,,0830.4,5.00,0.00,30.6,29.6,00.0,39.5,32.1,34.0,0000.6,0024.14,0010.97,0009.15
2021-08-26 13:53:00,,0830.4,5.00,0.00,30.6,29.6,00.0,39.5,32.1,33.9,0000.8,0023.32,0010.92,0009.16
2021-08-26 13:54:00,,0830.4,4.99,0.00,30.6,29.6,00.0,39.5,32.1,33.7,0000.9,0023.57,0010.95,0009.17
2021-08-26 13:55:00,,0830.4,5.01,0.00,30.6,29.7,00.0,39.5,32.2,33.7,0000.8,0023.09,0010.96,0009.18
2021-08-26 13:56:00,,0830.5,4.99,0.00,30.6,29.7,00.0,39.6,32.2,33.6,0000.7,0022.22,0010.91,0009.18
2021-08-26 13:57:00,,0830.5,4.99,0.00,30.6,29.6,00.0,39.6,32.2,33.7,0000.6,0021.54,0010.94,0009.20
2021-08-26 13:58:00,,0830.5,5.00,0.00,30.6,28.2,00.0,39.5,31.8,34.2,0000.4,0020.91,0010.89,0009.20
2021-08-26 13:59:00,,0830.6,5.00,0.00,30.4,26.8,00.0,39.5,31.4,34.0,0000.5,0020.79,0010.88,0009.21
